THY7MA EDDS-LTFM

Flight info

Callsign THY7MA
Flight time N/A
Altitude 35000
Route ABTAL4B ABTAL L173 RIXED Y161 MAH L173 EBEDA L603 LATLO DCT OBEDI DCT DIPSA/N0450F390 DCT BEDOX DCT NASSY DCT OKLOP DCT ETIDA T390 RILEX
Aircraft B38M/M-SDE1FGHILORVWXY/HB1

Departure

Time 2026-05-05 15:14
Airport Stuttgart Airport (EDDS)

Arrival

Time N/A
Airport İstanbul Airport (LTFM)
Time Latitude Longitude Altitude Speed Heading
2026-05-05 14:28 48.68855 9.19213 1318 ft 0 kts 344°
2026-05-05 15:01 48.68845 9.19217 1318 ft 4 kts 344°
2026-05-05 15:01 48.68819 9.19228 1318 ft 4 kts 343°
2026-05-05 15:01 48.68797 9.19247 1317 ft 4 kts 310°
2026-05-05 15:02 48.68788 9.19280 1317 ft 4 kts 261°
2026-05-05 15:02 48.68790 9.19290 1317 ft 1 kts 254°
2026-05-05 15:05 48.68789 9.19288 1317 ft 1 kts 254°
2026-05-05 15:06 48.68787 9.19276 1317 ft 2 kts 254°
2026-05-05 15:06 48.68778 9.19229 1318 ft 8 kts 254°
2026-05-05 15:06 48.68743 9.19149 1320 ft 10 kts 202°
2026-05-05 15:06 48.68684 9.19161 1319 ft 8 kts 163°
2026-05-05 15:07 48.68642 9.19221 1316 ft 9 kts 94°
2026-05-05 15:07 48.68662 9.19345 1313 ft 16 kts 74°
2026-05-05 15:07 48.68700 9.19548 1307 ft 24 kts 74°
2026-05-05 15:07 48.68745 9.19791 1300 ft 21 kts 74°
2026-05-05 15:08 48.68791 9.19933 1298 ft 15 kts 50°
2026-05-05 15:08 48.68848 9.20082 1296 ft 18 kts 70°
2026-05-05 15:08 48.68887 9.20291 1291 ft 23 kts 74°
2026-05-05 15:08 48.68933 9.20539 1287 ft 21 kts 73°
2026-05-05 15:09 48.68979 9.20771 1281 ft 25 kts 73°
2026-05-05 15:09 48.69022 9.21003 1275 ft 21 kts 73°
2026-05-05 15:09 48.69067 9.21239 1272 ft 23 kts 74°
2026-05-05 15:09 48.69109 9.21465 1269 ft 23 kts 74°
2026-05-05 15:10 48.69157 9.21714 1257 ft 27 kts 73°
2026-05-05 15:10 48.69212 9.22004 1253 ft 27 kts 74°
2026-05-05 15:10 48.69262 9.22261 1248 ft 21 kts 74°
2026-05-05 15:10 48.69302 9.22482 1239 ft 24 kts 74°
2026-05-05 15:11 48.69352 9.22744 1233 ft 26 kts 74°
2026-05-05 15:11 48.69401 9.22997 1228 ft 13 kts 74°
2026-05-05 15:11 48.69414 9.23100 1227 ft 5 kts 99°
2026-05-05 15:11 48.69399 9.23140 1226 ft 2 kts 154°
2026-05-05 15:12 48.69359 9.23157 1224 ft 13 kts 164°
2026-05-05 15:12 48.69323 9.23172 1222 ft 4 kts 165°
2026-05-05 15:12 48.69267 9.23195 1216 ft 14 kts 164°
2026-05-05 15:12 48.69221 9.23215 1215 ft 3 kts 163°
2026-05-05 15:13 48.69198 9.23216 1215 ft 3 kts 194°
2026-05-05 15:13 48.69180 9.23196 1216 ft 6 kts 232°
2026-05-05 15:13 48.69126 9.22919 1221 ft 63 kts 254°
2026-05-05 15:13 48.68934 9.21915 1245 ft 132 kts 254°
2026-05-05 15:14 48.68639 9.20358 1521 ft 165 kts 256°
2026-05-05 15:14 48.68301 9.18607 2217 ft 179 kts 253°
2026-05-05 15:14 48.67924 9.16783 3104 ft 180 kts 252°
2026-05-05 15:14 48.67560 9.14939 3811 ft 193 kts 253°
2026-05-05 15:15 48.67175 9.12907 4331 ft 214 kts 252°
2026-05-05 15:15 48.66670 9.10638 4835 ft 236 kts 242°
2026-05-05 15:15 48.65660 9.08785 5983 ft 230 kts 213°
2026-05-05 15:15 48.64133 9.08045 6912 ft 237 kts 184°
2026-05-05 15:16 48.62525 9.08608 7789 ft 249 kts 154°
2026-05-05 15:16 48.61269 9.10505 8711 ft 264 kts 122°
2026-05-05 15:16 48.60717 9.13245 9389 ft 287 kts 98°
2026-05-05 15:16 48.60907 9.16348 9971 ft 308 kts 76°
2026-05-05 15:17 48.61602 9.19501 10482 ft 325 kts 80°
2026-05-05 15:17 48.61772 9.22984 10932 ft 341 kts 90°
2026-05-05 15:17 48.62150 9.26626 11319 ft 362 kts 72°
2026-05-05 15:17 48.63111 9.30219 11808 ft 377 kts 69°
2026-05-05 15:18 48.64130 9.33927 12433 ft 385 kts 68°
2026-05-05 15:18 48.65161 9.37627 13269 ft 388 kts 68°
2026-05-05 15:18 48.66236 9.41456 14005 ft 392 kts 68°
2026-05-05 15:18 48.67295 9.45228 14715 ft 396 kts 68°
2026-05-05 15:19 48.68377 9.49077 15421 ft 399 kts 68°
2026-05-05 15:19 48.69465 9.52959 16136 ft 402 kts 68°
2026-05-05 15:19 48.70561 9.56870 16850 ft 405 kts 69°
2026-05-05 15:19 48.71664 9.60812 17515 ft 409 kts 69°
2026-05-05 15:20 48.72779 9.64804 18135 ft 413 kts 69°
2026-05-05 15:20 48.73897 9.68817 18708 ft 416 kts 69°
2026-05-05 15:20 48.75026 9.72874 19300 ft 418 kts 69°